When you browse on this site, cookies collect data to enhance your experience and personalize the content and advertising you see.
Visit our Privacy Policy to learn more. By continuing to use the site, you agree to this use of cookies and data.

Hourly Weather Zatyshne

Today, 20 September, Sunday

Time Temperature Precipitation Wind Pressure Humidity
00:00 +13°C° 0 mm 3 mps 757 mmHg 61%
01:00 +13°C° 0 mm 3 mps 757 mmHg 62%
02:00 +13°C° 0 mm 3 mps 757 mmHg 66%
03:00 +13°C° 0 mm 3 mps 757 mmHg 66%
04:00 +14°C° 0 mm 2 mps 757 mmHg 66%
05:00 +14°C° 0 mm 2 mps 757 mmHg 66%
06:00 +16°C° 0 mm 2 mps 757 mmHg 59%
07:00 +18°C° 0 mm 2 mps 757 mmHg 52%
08:00 +19°C° 0 mm 2 mps 757 mmHg 46%
09:00 +21°C° 0 mm 3 mps 757 mmHg 43%
10:00 +22°C° 0 mm 3 mps 757 mmHg 40%
11:00 +24°C° 0 mm 3 mps 757 mmHg 36%
12:00 +23°C° 0 mm 4 mps 757 mmHg 36%
13:00 +23°C° 0 mm 4 mps 757 mmHg 36%
14:00 +23°C° 0 mm 4 mps 756 mmHg 36%
15:00 +22°C° 0 mm 3 mps 756 mmHg 37%
16:00 +22°C° 0 mm 3 mps 756 mmHg 38%
17:00 +21°C° 0 mm 2 mps 756 mmHg 39%
18:00 +20°C° 0 mm 3 mps 756 mmHg 43%
19:00 +18°C° 0 mm 3 mps 757 mmHg 48%
20:00 +17°C° 0 mm 3 mps 757 mmHg 53%
21:00 +17°C° 0 mm 4 mps 757 mmHg 55%
22:00 +17°C° 0 mm 4 mps 757 mmHg 57%
23:00 +17°C° 0 mm 4 mps 757 mmHg 59%

Tomorrow, 21 September, Monday

Time Temperature Precipitation Wind Pressure Humidity
00:00 +16°C° 0 mm 5 mps 757 mmHg 61%
01:00 +16°C° 0 mm 6 mps 757 mmHg 63%
02:00 +16°C° 0 mm 7 mps 757 mmHg 64%
03:00 +16°C° 0 mm 7 mps 757 mmHg 61%
04:00 +15°C° 0 mm 7 mps 757 mmHg 58%
05:00 +15°C° 0 mm 7 mps 757 mmHg 55%
06:00 +16°C° 0 mm 7 mps 757 mmHg 49%
07:00 +18°C° 0 mm 7 mps 758 mmHg 44%
08:00 +20°C° 0 mm 7 mps 758 mmHg 38%
09:00 +21°C° 0 mm 7 mps 758 mmHg 36%
10:00 +22°C° 0 mm 8 mps 758 mmHg 34%
11:00 +22°C° 0 mm 8 mps 758 mmHg 32%
12:00 +22°C° 0 mm 8 mps 757 mmHg 34%
13:00 +22°C° 0 mm 8 mps 757 mmHg 35%
14:00 +22°C° 0 mm 9 mps 757 mmHg 36%
15:00 +21°C° 0 mm 8 mps 757 mmHg 41%
16:00 +20°C° 0 mm 8 mps 757 mmHg 45%
17:00 +18°C° 0 mm 8 mps 757 mmHg 49%
18:00 +18°C° 0 mm 8 mps 757 mmHg 51%
19:00 +17°C° 0 mm 7 mps 757 mmHg 53%
20:00 +16°C° 0 mm 7 mps 757 mmHg 55%
21:00 +17°C° 0 mm 7 mps 757 mmHg 53%
22:00 +17°C° 0 mm 7 mps 757 mmHg 51%
23:00 +17°C° 0 mm 8 mps 757 mmHg 49%

Day after tomorrow, 22 September, Tuesday

Time Temperature Precipitation Wind Pressure Humidity
00:00 +17°C° 0 mm 8 mps 757 mmHg 49%
01:00 +16°C° 0 mm 7 mps 757 mmHg 48%
02:00 +16°C° 0 mm 7 mps 757 mmHg 48%
03:00 +16°C° 0 mm 7 mps 757 mmHg 49%
04:00 +16°C° 0 mm 7 mps 757 mmHg 51%
05:00 +15°C° 0 mm 7 mps 757 mmHg 53%
06:00 +17°C° 0 mm 7 mps 757 mmHg 50%
07:00 +20°C° 0 mm 8 mps 757 mmHg 47%
08:00 +21°C° 0 mm 8 mps 758 mmHg 45%
09:00 +22°C° 0 mm 8 mps 758 mmHg 42%
10:00 +23°C° 0 mm 9 mps 757 mmHg 40%
11:00 +24°C° 0 mm 9 mps 757 mmHg 37%
12:00 +24°C° 0 mm 8 mps 757 mmHg 37%
13:00 +26°C° 0 mm 8 mps 757 mmHg 36%
14:00 +26°C° 0 mm 7 mps 757 mmHg 35%
15:00 +24°C° 0 mm 7 mps 756 mmHg 40%
16:00 +22°C° 0 mm 8 mps 756 mmHg 45%
17:00 +21°C° 0 mm 8 mps 756 mmHg 49%
18:00 +21°C° 0 mm 8 mps 756 mmHg 50%
19:00 +20°C° 0 mm 7 mps 756 mmHg 52%
20:00 +20°C° 0 mm 7 mps 756 mmHg 53%
21:00 +20°C° 0 mm 7 mps 756 mmHg 54%
22:00 +20°C° 0 mm 6 mps 756 mmHg 55%
23:00 +20°C° 0 mm 6 mps 756 mmHg 56%

23 September, Wednesday

Time Temperature Precipitation Wind Pressure Humidity
00:00 +19°C° 0 mm 6 mps 756 mmHg 56%
01:00 +19°C° 0 mm 6 mps 755 mmHg 57%
02:00 +17°C° 0 mm 5 mps 755 mmHg 57%
03:00 +17°C° 0 mm 6 mps 755 mmHg 61%
04:00 +17°C° 0 mm 6 mps 755 mmHg 66%
05:00 +17°C° 0 mm 6 mps 755 mmHg 70%
06:00 +18°C° 0 mm 7 mps 755 mmHg 65%
07:00 +21°C° 0 mm 7 mps 755 mmHg 60%
08:00 +22°C° 0 mm 7 mps 755 mmHg 55%
09:00 +23°C° 0 mm 7 mps 755 mmHg 52%
10:00 +24°C° 0 mm 7 mps 755 mmHg 50%
11:00 +27°C° 0 mm 7 mps 755 mmHg 47%
12:00 +27°C° 0 mm 7 mps 755 mmHg 46%
13:00 +27°C° 0 mm 6 mps 754 mmHg 45%
14:00 +28°C° 0 mm 6 mps 754 mmHg 43%
15:00 +27°C° 0 mm 5 mps 754 mmHg 47%
16:00 +26°C° 0 mm 5 mps 753 mmHg 50%
17:00 +25°C° 0 mm 4 mps 753 mmHg 53%
18:00 +23°C° 0 mm 4 mps 753 mmHg 58%
19:00 +21°C° 0 mm 4 mps 753 mmHg 63%
20:00 +20°C° 0 mm 3 mps 753 mmHg 69%
21:00 +20°C° 0 mm 3 mps 753 mmHg 69%
22:00 +20°C° 0 mm 3 mps 753 mmHg 70%
23:00 +20°C° 0 mm 2 mps 752 mmHg 71%

24 September, Thursday

Time Temperature Precipitation Wind Pressure Humidity
00:00 +19°C° 0 mm 2 mps 752 mmHg 72%
01:00 +19°C° 0 mm 2 mps 752 mmHg 73%
02:00 +19°C° 0 mm 2 mps 752 mmHg 74%
03:00 +19°C° 0 mm 3 mps 752 mmHg 77%
04:00 +19°C° 0 mm 3 mps 752 mmHg 79%
05:00 +18°C° 0 mm 4 mps 753 mmHg 82%
06:00 +20°C° 0 mm 4 mps 753 mmHg 76%
07:00 +21°C° 0 mm 3 mps 753 mmHg 70%
08:00 +22°C° 0 mm 3 mps 753 mmHg 64%
09:00 +25°C° 0 mm 3 mps 753 mmHg 58%
10:00 +26°C° 0 mm 3 mps 753 mmHg 52%
11:00 +28°C° 0 mm 3 mps 753 mmHg 46%
12:00 +28°C° 0 mm 3 mps 753 mmHg 46%
13:00 +28°C° 0 mm 3 mps 752 mmHg 46%
14:00 +28°C° 0 mm 3 mps 752 mmHg 47%
15:00 +27°C° 0 mm 3 mps 752 mmHg 50%
16:00 +26°C° 0 mm 3 mps 752 mmHg 54%
17:00 +25°C° 0 mm 2 mps 751 mmHg 58%
18:00 +24°C° 0 mm 2 mps 751 mmHg 63%
19:00 +23°C° 0 mm 2 mps 752 mmHg 67%
20:00 +20°C° 0 mm 2 mps 752 mmHg 72%
21:00 +20°C° 0 mm 2 mps 752 mmHg 72%
22:00 +21°C° 0 mm 1 mps 751 mmHg 72%
23:00 +21°C° 0 mm 1 mps 751 mmHg 72%

25 September, Friday

Time Temperature Precipitation Wind Pressure Humidity
00:00 +20°C° 0 mm 2 mps 751 mmHg 73%
01:00 +20°C° 0 mm 3 mps 751 mmHg 74%
02:00 +20°C° 0 mm 4 mps 751 mmHg 75%
03:00 +19°C° 0 mm 4 mps 751 mmHg 78%
04:00 +19°C° 0 mm 4 mps 751 mmHg 80%
05:00 +19°C° 0 mm 4 mps 751 mmHg 83%
06:00 +21°C° 0 mm 3 mps 751 mmHg 74%
07:00 +24°C° 0 mm 3 mps 751 mmHg 65%
08:00 +25°C° 0 mm 3 mps 751 mmHg 56%
09:00 +27°C° 0 mm 3 mps 751 mmHg 51%
10:00 +28°C° 0 mm 3 mps 751 mmHg 46%
11:00 +29°C° 0 mm 4 mps 751 mmHg 41%
12:00 +29°C° 0 mm 4 mps 751 mmHg 40%
13:00 +30°C° 0 mm 4 mps 751 mmHg 40%
14:00 +30°C° 0 mm 4 mps 750 mmHg 39%
15:00 +28°C° 0 mm 4 mps 750 mmHg 43%
16:00 +27°C° 0 mm 4 mps 750 mmHg 47%
17:00 +25°C° 0 mm 4 mps 750 mmHg 51%
18:00 +24°C° 0 mm 3 mps 750 mmHg 55%
19:00 +22°C° 0 mm 3 mps 750 mmHg 59%
20:00 +21°C° 0 mm 3 mps 750 mmHg 63%
21:00 +21°C° 0 mm 2 mps 750 mmHg 64%
22:00 +21°C° 0 mm 2 mps 750 mmHg 64%
23:00 +21°C° 0 mm 1 mps 749 mmHg 64%
Show more